When you browse on this site, cookies collect data to enhance your experience and personalize the content and advertising you see.
Visit our Privacy Policy to learn more. By continuing to use the site, you agree to this use of cookies and data.
  • In Austria
  • List of Countries
  • For 7 days
  • Water Temperature
  • Weather Map
  • News
  • Weather Widgets
  • user-avatar
    Login

    Hourly Weather Silvania

    Today, 22 September, Sunday

    Time Temperature Precipitation Wind Pressure Humidity
    00:00 +18°C° 0.5 mm 1 mps 636 mmHg 81%
    01:00 +18°C° 0 mm 1 mps 636 mmHg 80%
    02:00 +18°C° 0.3 mm 1 mps 636 mmHg 81%
    03:00 +18°C° 0.3 mm 1 mps 636 mmHg 81%
    04:00 +18°C° 0.3 mm 1 mps 635 mmHg 82%
    05:00 +18°C° 0.1 mm 1 mps 636 mmHg 81%
    06:00 +19°C° 0.1 mm 1 mps 637 mmHg 80%
    07:00 +18°C° 0.1 mm 0 mps 637 mmHg 79%
    08:00 +21°C° 0.2 mm 1 mps 638 mmHg 78%
    09:00 +22°C° 0.2 mm 1 mps 638 mmHg 76%
    10:00 +24°C° 0.2 mm 1 mps 638 mmHg 74%
    11:00 +24°C° 0.5 mm 1 mps 638 mmHg 72%
    12:00 +25°C° 0.5 mm 1 mps 637 mmHg 70%
    13:00 +26°C° 0.5 mm 1 mps 637 mmHg 68%
    14:00 +25°C° 0.7 mm 1 mps 636 mmHg 68%
    15:00 +25°C° 0.7 mm 1 mps 636 mmHg 68%
    16:00 +25°C° 0.7 mm 1 mps 635 mmHg 68%
    17:00 +24°C° 0.4 mm 1 mps 635 mmHg 71%
    18:00 +22°C° 0.4 mm 1 mps 635 mmHg 75%
    19:00 +20°C° 0.4 mm 2 mps 636 mmHg 78%
    20:00 +19°C° 0.2 mm 2 mps 636 mmHg 78%
    21:00 +19°C° 0.2 mm 2 mps 636 mmHg 78%
    22:00 +18°C° 0.2 mm 2 mps 636 mmHg 78%
    23:00 +18°C° 0.2 mm 2 mps 636 mmHg 78%

    Tomorrow, 23 September, Monday

    Time Temperature Precipitation Wind Pressure Humidity
    00:00 +18°C° 0.2 mm 1 mps 636 mmHg 78%
    01:00 +18°C° 0.2 mm 1 mps 636 mmHg 78%
    02:00 +18°C° 0.3 mm 1 mps 636 mmHg 78%
    03:00 +18°C° 0.3 mm 1 mps 636 mmHg 79%
    04:00 +18°C° 0.3 mm 1 mps 636 mmHg 80%
    05:00 +18°C° 0.4 mm 1 mps 636 mmHg 80%
    06:00 +17°C° 0.4 mm 0 mps 637 mmHg 79%
    07:00 +18°C° 0.4 mm 0 mps 637 mmHg 79%
    08:00 +21°C° 0.2 mm 1 mps 638 mmHg 76%
    09:00 +23°C° 0.2 mm 1 mps 638 mmHg 73%
    10:00 +24°C° 0.2 mm 1 mps 639 mmHg 69%
    11:00 +24°C° 0.5 mm 1 mps 638 mmHg 71%
    12:00 +24°C° 0.5 mm 1 mps 637 mmHg 72%
    13:00 +25°C° 0.5 mm 1 mps 636 mmHg 73%
    14:00 +24°C° 0.7 mm 1 mps 636 mmHg 75%
    15:00 +24°C° 0.7 mm 1 mps 635 mmHg 76%
    16:00 +23°C° 0.7 mm 1 mps 635 mmHg 77%
    17:00 +22°C° 0.6 mm 1 mps 635 mmHg 79%
    18:00 +22°C° 0.6 mm 1 mps 635 mmHg 80%
    19:00 +21°C° 0.6 mm 1 mps 635 mmHg 81%
    20:00 +21°C° 0.2 mm 1 mps 636 mmHg 80%
    21:00 +21°C° 0.2 mm 1 mps 636 mmHg 79%
    22:00 +20°C° 0.2 mm 1 mps 637 mmHg 79%
    23:00 +20°C° 0.2 mm 1 mps 636 mmHg 80%

    Day after tomorrow, 24 September, Tuesday

    Time Temperature Precipitation Wind Pressure Humidity
    00:00 +19°C° 0.2 mm 1 mps 636 mmHg 81%
    01:00 +19°C° 0.2 mm 1 mps 636 mmHg 83%
    02:00 +18°C° 0.1 mm 1 mps 636 mmHg 83%
    03:00 +18°C° 0.1 mm 1 mps 636 mmHg 83%
    04:00 +18°C° 0.1 mm 1 mps 636 mmHg 83%
    05:00 +17°C° 0.1 mm 0 mps 636 mmHg 81%
    06:00 +17°C° 0.1 mm 0 mps 637 mmHg 80%
    07:00 +18°C° 0.1 mm 0 mps 637 mmHg 78%
    08:00 +21°C° 0.2 mm 1 mps 638 mmHg 76%
    09:00 +23°C° 0.2 mm 1 mps 638 mmHg 74%
    10:00 +24°C° 0.2 mm 2 mps 639 mmHg 72%
    11:00 +24°C° 0.4 mm 2 mps 638 mmHg 72%
    12:00 +24°C° 0.4 mm 2 mps 637 mmHg 73%
    13:00 +24°C° 0.4 mm 2 mps 637 mmHg 73%
    14:00 +24°C° 0.8 mm 1 mps 636 mmHg 73%
    15:00 +24°C° 0.8 mm 1 mps 636 mmHg 73%
    16:00 +24°C° 0.8 mm 1 mps 636 mmHg 74%
    17:00 +23°C° 1.2 mm 1 mps 636 mmHg 76%
    18:00 +22°C° 1.2 mm 1 mps 636 mmHg 79%
    19:00 +21°C° 1.2 mm 1 mps 636 mmHg 81%
    20:00 +21°C° 0.1 mm 1 mps 636 mmHg 80%
    21:00 +21°C° 0.1 mm 1 mps 637 mmHg 78%
    22:00 +21°C° 0.1 mm 1 mps 637 mmHg 77%
    23:00 +20°C° 0.1 mm 1 mps 637 mmHg 78%

    25 September, Wednesday

    Time Temperature Precipitation Wind Pressure Humidity
    00:00 +20°C° 0.1 mm 1 mps 636 mmHg 80%
    01:00 +18°C° 0.1 mm 0 mps 636 mmHg 81%
    02:00 +18°C° 0.3 mm 0 mps 636 mmHg 83%
    03:00 +17°C° 0.3 mm 0 mps 636 mmHg 85%
    04:00 +17°C° 0.3 mm 0 mps 636 mmHg 86%
    05:00 +17°C° 0.4 mm 0 mps 636 mmHg 87%
    06:00 +17°C° 0.4 mm 0 mps 637 mmHg 87%
    07:00 +18°C° 0.4 mm 0 mps 637 mmHg 88%
    08:00 +21°C° 0.5 mm 1 mps 638 mmHg 86%
    09:00 +22°C° 0.5 mm 1 mps 638 mmHg 85%
    10:00 +23°C° 0.5 mm 1 mps 638 mmHg 83%
    11:00 +22°C° 1.1 mm 1 mps 638 mmHg 85%
    12:00 +22°C° 1.1 mm 1 mps 637 mmHg 87%
    13:00 +22°C° 1.1 mm 1 mps 636 mmHg 88%
    14:00 +22°C° 0.5 mm 1 mps 636 mmHg 87%
    15:00 +22°C° 0.5 mm 1 mps 635 mmHg 86%
    16:00 +22°C° 0.5 mm 1 mps 635 mmHg 85%
    17:00 +21°C° 0.4 mm 1 mps 635 mmHg 86%
    18:00 +21°C° 0.4 mm 1 mps 635 mmHg 86%
    19:00 +20°C° 0.4 mm 1 mps 636 mmHg 87%
    20:00 +20°C° 0.1 mm 1 mps 636 mmHg 85%
    21:00 +20°C° 0.1 mm 1 mps 637 mmHg 84%
    22:00 +19°C° 0.1 mm 1 mps 637 mmHg 83%
    23:00 +19°C° 0 mm 1 mps 637 mmHg 82%

    26 September, Thursday

    Time Temperature Precipitation Wind Pressure Humidity
    00:00 +19°C° 0 mm 1 mps 636 mmHg 82%
    01:00 +19°C° 0 mm 1 mps 636 mmHg 82%
    02:00 +19°C° 0.2 mm 1 mps 636 mmHg 83%
    03:00 +19°C° 0.2 mm 1 mps 636 mmHg 85%
    04:00 +17°C° 0.2 mm 0 mps 635 mmHg 86%
    05:00 +17°C° 0 mm 0 mps 636 mmHg 85%
    06:00 +17°C° 0 mm 0 mps 637 mmHg 85%
    07:00 +18°C° 0 mm 0 mps 637 mmHg 84%
    08:00 +19°C° 0.2 mm 0 mps 638 mmHg 79%
    09:00 +22°C° 0.2 mm 1 mps 638 mmHg 75%
    10:00 +24°C° 0.2 mm 1 mps 639 mmHg 70%
    11:00 +24°C° 0.4 mm 1 mps 638 mmHg 67%
    12:00 +25°C° 0.4 mm 1 mps 637 mmHg 64%
    13:00 +26°C° 0.4 mm 1 mps 637 mmHg 61%
    14:00 +25°C° 0.4 mm 1 mps 636 mmHg 62%
    15:00 +25°C° 0.4 mm 1 mps 636 mmHg 64%
    16:00 +23°C° 0.4 mm 0 mps 635 mmHg 65%
    17:00 +23°C° 0.1 mm 1 mps 635 mmHg 69%
    18:00 +22°C° 0.1 mm 1 mps 635 mmHg 72%
    19:00 +19°C° 0.1 mm 2 mps 635 mmHg 76%
    20:00 +19°C° 0 mm 2 mps 635 mmHg 73%
    21:00 +18°C° 0 mm 2 mps 636 mmHg 69%
    22:00 +18°C° 0 mm 2 mps 636 mmHg 65%
    23:00 +18°C° 0 mm 2 mps 636 mmHg 65%

    27 September, Friday

    Time Temperature Precipitation Wind Pressure Humidity
    00:00 +18°C° 0 mm 2 mps 636 mmHg 65%
    01:00 +19°C° 0 mm 1 mps 635 mmHg 64%
    02:00 +18°C° 0.1 mm 1 mps 635 mmHg 65%
    03:00 +18°C° 0.1 mm 1 mps 635 mmHg 65%
    04:00 +18°C° 0.1 mm 1 mps 635 mmHg 66%
    05:00 +19°C° 0 mm 1 mps 636 mmHg 66%
    06:00 +20°C° 0 mm 1 mps 637 mmHg 66%
    07:00 +19°C° 0 mm 0 mps 637 mmHg 66%
    08:00 +22°C° 0 mm 1 mps 638 mmHg 65%
    09:00 +23°C° 0 mm 1 mps 638 mmHg 63%
    10:00 +25°C° 0 mm 1 mps 639 mmHg 62%
    11:00 +25°C° 0.4 mm 1 mps 638 mmHg 63%
    12:00 +26°C° 0.4 mm 2 mps 637 mmHg 63%
    13:00 +26°C° 0.4 mm 2 mps 636 mmHg 64%
    14:00 +26°C° 0.8 mm 1 mps 636 mmHg 66%
    15:00 +25°C° 0.8 mm 1 mps 636 mmHg 68%
    16:00 +25°C° 0.8 mm 1 mps 635 mmHg 70%
    17:00 +24°C° 0.9 mm 1 mps 635 mmHg 73%
    18:00 +22°C° 0.9 mm 1 mps 635 mmHg 76%
    19:00 +20°C° 0.9 mm 2 mps 635 mmHg 79%
    20:00 +21°C° 0.1 mm 1 mps 636 mmHg 77%
    21:00 +21°C° 0.1 mm 1 mps 636 mmHg 75%
    22:00 +20°C° 0.1 mm 1 mps 636 mmHg 74%
    23:00 +20°C° 0.3 mm 1 mps 636 mmHg 76%
    Show more